Погода в Жуковке

Россия / Республика Мордовия     53°52′28″N   42°43′38″E
темп.,
°C
ветер,
м/с
пор.,
м/с
влажн.,
%
обл.,
%
осадки,
мм/ч
давл.,
гПа
погр.,
м
23 апреля, пт
пт2300:00+9ююв3571100 0.0 102280
03:00+7ююв477291 0.0 1021103
06:00+9ю41073100 0.0 1022247
09:00+12ююв696247 0.0 1021564
12:00+16ю674985 0.2 10202106
15:00+15ююв465298 0.6 10191440
18:00+13юв486399 0.1 1017274
21:00+10ююв497254 0.1 1016166
24 апреля, сб
сб2400:00+8ююв498468 0.1 1015166
03:00+8ююв4118796 0.1 1013259
06:00+7ююв5118786 0.1 1011308
09:00+11ю71074100 0.3 1009661
12:00+14ююз7958100 0.7 10071582
15:00+9ююз71085100 1.8 10061295
18:00+6зюз6981100 0.1 1008874
21:00+6зюз61074100 0.4 10091077
25 апреля, вс
вс2500:00+4юз612781 0.0 1008469
03:00+2юз6128490 0.0 1008543
06:00+2зюз6984100 0.3 10091046
09:00+4з7127524 0.6 10111106
12:00+8з91149100 0.1 10132269
15:00+7зюз8135299 0.7 10142141
18:00+8зюз610535 0.4 10141286
21:00+4ю4107065 0.4 1014201
26 апреля, пн
пн2600:00+4юз6138098 0.0 1015949
03:00+4юз6118890 0.1 1015818
06:00+2зюз488849 0.1 1016378
09:00+6юз4562100 0.1 1015996
12:00+9юз5747100 0.0 10141905
15:00+9юз5650100 0.0 10131782
18:00+8ююз3362100 0.0 1012861
21:00+5ююв358797 0.1 1012197
27 апреля, вт
вт2700:00+5ююв3391100 0.3 1010245
03:00+3ссз2399100 4.9 1009434
06:00+1сз47100100 8.7 1008296
09:00+3з35100100 9.4 1008294
12:00+5юз4683100 1.4 1007804
15:00+6зсз4674100 3.6 1007881
18:00+5з61077100 1.6 1008805
21:00+3зюз4118485 1.6 1009295